This is the latest recevied weather packets stored in our database for station/object DW9280. If no packets are shown the sender has not sent any weather packets the latest 1 day(s).
| Time | Temp. | Humidity | Pressure | Rain* | Wind** | Luminosity | Snow |
|---|---|---|---|---|---|---|---|
| 1836274622 | 16.67° C | 88% | 1013 hPa | 0 mm | 0.89 m/s, 138° | 0 W/m² | - |
| 1836274475 | 16.67° C | 88% | 1013.7 hPa | 0 mm | 0.89 m/s, 160° | 0 W/m² | - |
| 1836274320 | 16.67° C | 88% | 1013.5 hPa | 0 mm | 0.89 m/s, 139° | 0 W/m² | - |
| 1836274170 | 16.67° C | 88% | 1013.4 hPa | 0 mm | 0.45 m/s, 147° | 0 W/m² | - |
| 1836274147 | 16.67° C | 88% | 1013.7 hPa | 0 mm | 0.89 m/s, 136° | 0 W/m² | - |
| 1778024287 | 10.56° C | 82% | 1010 hPa | 0 mm | 1.79 m/s, 22° | 0 W/m² | - |
| 1778023988 | 10.56° C | 82% | 1010.1 hPa | 0 mm | 1.34 m/s, 0° | 0 W/m² | - |
| 1778023688 | 10.56° C | 82% | 1010.1 hPa | 0 mm | 1.79 m/s, 56° | 0 W/m² | - |
| 1778023388 | 10.56° C | 82% | 1010.1 hPa | 0 mm | 1.79 m/s, 9° | 0 W/m² | - |
| 1778023087 | 10.56° C | 82% | 1010.1 hPa | 0 mm | 1.79 m/s, 17° | 0 W/m² | - |
| 1778022787 | 10.56° C | 82% | 1010.2 hPa | 0 mm | 1.79 m/s, 28° | 0 W/m² | - |
| 1778022487 | 10.56° C | 83% | 1010.2 hPa | 0 mm | 1.79 m/s, 19° | 0 W/m² | - |
| 1778022188 | 10° C | 83% | 1010.2 hPa | 0 mm | 1.79 m/s, 28° | 0 W/m² | - |
| 1778021887 | 10° C | 83% | 1010.2 hPa | 0 mm | 1.79 m/s, 42° | 0 W/m² | - |
| 1778021587 | 10° C | 83% | 1010.2 hPa | 0 mm | 1.79 m/s, 36° | 0 W/m² | - |
| 1778021286 | 10° C | 83% | 1010.3 hPa | 0 mm | 1.79 m/s, 11° | 0 W/m² | - |
| 1778020988 | 10° C | 83% | 1010.3 hPa | 0 mm | 1.79 m/s, 34° | 0 W/m² | - |
| 1778020688 | 10° C | 83% | 1010.3 hPa | 0 mm | 1.34 m/s, 340° | 0 W/m² | - |
| 1778020389 | 10° C | 83% | 1010.4 hPa | 0 mm | 1.79 m/s, 40° | 0 W/m² | - |
| 1778020087 | 10° C | 83% | 1010.4 hPa | 0 mm | 1.34 m/s, 11° | 0 W/m² | - |
| 1778019788 | 10° C | 83% | 1010.5 hPa | 0 mm | 1.79 m/s, 27° | 0 W/m² | - |
| 1778019489 | 10° C | 83% | 1010.5 hPa | 0 mm | 2.24 m/s, 355° | 0 W/m² | - |
| 1778019187 | 10° C | 83% | 1010.5 hPa | 0 mm | 1.79 m/s, 30° | 0 W/m² | - |
| 1778018886 | 10° C | 83% | 1010.6 hPa | 0 mm | 2.24 m/s, 35° | 0 W/m² | - |
| 1778018587 | 10° C | 83% | 1010.5 hPa | 0 mm | 2.24 m/s, 355° | 0 W/m² | - |
* Rain latest hour (hover to see other rain measurements)
** Current wind speed in m/s (hover to see current wind gust speed)